Member area
Imprimable
La Roche en Ardenne, 07/07/2018, BEL - The GhostRace IV
List of reports > Ghostrace - 14 km - Result
Search: Page: [1]
84 Entries
 
Complains are not accepted anymore. Results are final.
PlaceNrNameAgeNATTeamTimeTkmMoy.ScrCity
1.17ANCION Gilles25BELOCRBW1:32:006:35 9.133SEILLES
2.5DUBASIN Kay31BEL1:36:306:54 8.704NOISEUX
3.285GARAIN Stijn29BELGHOSTRUNNERS1:43:377:25 8.116HERFELINGEN
4.284GARAIN Tim23BELGHOSTRUNNERS1:43:447:25 8.107LENNIK
5.218PASTEELS Johan33BEL1:47:407:42 7.808LONGCHAMPS
6.428POIRRIER Louis18BEL1:47:537:43 7.799WAHA
7.351GUEBELS Geoffrey22BEL1:50:167:53 7.6210NEUFCHATEAU
8.8GALET Damien33BELOCR BELGIUM WALLONIA1:52:558:04 7.4411CHAPON-SERAING
9.7COWEZ Jeremie27BELOCRBW1:53:488:08 7.3812CINEY
10.1DEFRENNE Johan28BELDEUF TEAM1:54:228:11 7.3513CHERAIN
11.2DEFRENNE Mike30BELDEUF TEAM1:55:018:13 7.3014BASTOGNE
12.430ROBYN Nicolas23BEL1:59:138:31 7.0515WAHA
13.296FASOLI Gianni27BELJAC2:03:448:51 6.7916SERAING
14.291NERI Bruno27BELJAC2:04:398:55 6.7419GRACE HOLLOGNE
15.127MAHY Alexandre14BELTHE WARRIORS2:04:568:56 6.7220BASTOGNE
16.361HOUSIAUX Dimitri30BEL2:05:008:56 6.7221GEVES
17.124REMACLE Louis15BELTHE WARRIORS2:05:018:56 6.7222BASTOGNE
18.126NOPPE Gustin15BELTHE WARRIORS2:05:078:57 6.7123VAUX-SUR-SÛRE
19.125LHOAS Elliot15BELTHE WARRIORS2:05:098:57 6.7124SIBRET
20.349OBCHETTE Cedric31BEL2:05:128:57 6.7125BEAURAING
21.128MAHY Christophe15BELTHE WARRIORS2:05:128:57 6.7126BASTOGNE
22.93WIJBINGA Arnaud31BEL2:08:109:10 6.5530BRUXELLES
23.152BAUDOUX Cédric33BELLES BANNIS2:10:239:19 6.4431MORLANWELZ
24.9VERELST Michael32BELKAKI´S2:11:529:26 6.3732OUFFET
25.269GODFROID Lillian19BEL2:14:499:38 6.2334ANDERLECHT
26.27DELEBARRE Benoît27FRACHTI2:16:189:45 6.1637TEMPLEUVE
27.448COLLIN Andy30BEL2:16:219:45 6.1638ATHUS
28.280BORIES Joeri29BELGHOSTRUNNERS2:21:3810:07 5.9343GENT
29.282DESMYTER Wilhelm27BELGHOSTRUNNERS2:21:4010:08 5.9344DILBEEK
30.281REDANT Tom29BELGHOSTRUNNERS2:21:4210:08 5.9345HALLE
31.283COUVREUR Lode23BELGHOSTRUNNERS2:21:4810:08 5.9246DILBEEK
32.497DUFOUR Thibault29BEL2:22:4910:13 5.8848
33.261MARTIN AVENDANO David25BEL2:23:2210:15 5.8649TUBIZE
34.487BRUCK Pierre20BEL2:23:5110:17 5.8450
35.471CLAUDE Nicolas20BEL2:23:5710:17 5.8451
36.479DELREZ Ronan27BEL2:26:0610:27 5.7552
37.123FRONZEE Jerome27BEL2:27:2010:32 5.7054FLEMALLE
38.121STRUYS Jeremy27BEL2:27:2710:32 5.7055REMICOURT
39.398CORMOND Ethan20BEL2:27:4810:34 5.6856GENTINNES
40.397LEGROS Guillaume17BEL2:28:0010:35 5.6857GENTINNES
41.381DEWART Tanguy25BELLES KETS2:30:0310:44 5.6060BRUXELLES
42.380RITZEN Kevin25BELLES KETS2:30:0910:44 5.5961WEMMEL
43.385DUMANCIC Florin24BELGITANS GAUMAIS2:33:0210:56 5.4966CHINY
44.384CHEVALIER Cyril29FRAGITANS GAUMAIS2:33:0910:57 5.4967VILLERS
45.386GREGOIRE Raphaël29BELGITANS GAUMAIS2:33:1610:57 5.4868SEDAN
46.501ROUSSEL Maxime31BELLES FÉDÉSRÂLES2:33:4610:59 5.4671SAINT VINCENT
47.500HUTIN Jérome34BELLES FÉDÉSRÂLES2:33:5311:00 5.4672VIRTON
48.439WITT Guillaume25BEL2:35:3311:07 5.4073WAHA
49.429POLUS Jonathan27BEL2:35:4111:08 5.40744920
50.231MOSSONG Claude29LUXGHOSTBUSTERS2:37:2511:15 5.3475BEAUFORT
51.232MOSSONG Nicolas22LUXGHOSTBUSTERS2:37:3411:16 5.3376BEAUFORT
52.347GRUWÉ François20BEL2:39:2011:23 5.2777BRUXELLES
53.348FRAYLICH Simon33BEL2:39:2411:24 5.2778MELLET
54.440BODSON Regis23BEL2:39:4511:25 5.2679
55.105DEWEZ Simon26BEL2:40:0011:26 5.2580JALHAY
56.107GARSOU Manuel26BEL2:40:0111:26 5.2581THEUX
57.113VANHULLE Francois33BELVINCE TEAM2:40:1611:27 5.2482TOURNAI
58.456MOUNCHIH Ayoub30MAR2:40:1711:27 5.2483BRUXELLE 1000
59.457LECLERCQ Quentin26BEL2:40:1811:27 5.2484BRUXELLES
60.108SFERRAZZA Lucio30BELVINCE TEAM2:40:2011:28 5.2485LEUZE
61.114DUFRENNE Guillaume31BELVINCE TEAM2:40:2611:28 5.2486TAINTIGNIES
62.455FIANKAN Kevin31BEL2:40:2911:28 5.2387BRUXELLES
63.118DEVOLDER Kevin32BELVINCE TEAM2:40:3911:29 5.2388RUMES
64.110SEILLIER Benjamin34BELVINCE TEAM2:40:5911:30 5.2290DOTTIGNIES
65.106GOBLET Augustin27BEL2:41:0511:31 5.2191MARTELANGE
66.338BEUSCART Martin19BELLES BLÉDARTS2:43:5611:43 5.1292HAVINNES
67.337CEYX Lucas19BELLES BLÉDARTS2:43:5911:43 5.1293KAIN
68.112DEJEAN Julien32BELVINCE TEAM2:44:5811:47 5.0995RUMES
69.111HENRY Thomas30BELVINCE TEAM2:45:0111:48 5.0996PERONNES
70.149BAUDOUX Cédric33BELLES BANNIS2:46:3011:54 5.05102MORLANWELZ
71.151SANCHEZ Aurélie33BELLES BANNIS2:49:0312:05 4.97108MORLANWELZ
72.330MAYEN Henri27BELTEAMBUILDING2:50:5112:13 4.92113MEIXDEVANTVIRTON
73.318MARCHAND Sébastien34BEL3:00:4612:55 4.65120LOUVAIN LA NEUVE
74.382LEON SAUVALLE Adria31ESP3:03:0313:05 4.59121CERVELLO
75.383MAGNÉE David24BEL3:03:0513:05 4.59122HUY
76.75VEYS Grégory33BELLES JAMBES CASSÉES3:06:2113:19 4.51124LIÈGE
77.368MICHAUX Guillaume22BELUNTRUCCOOL23:06:5613:22 4.49131THIMÉON
78.362CASTREMAN Maximilien19BELUNTRUCCOOL23:07:0513:22 4.49132GOSSELIES
79.370RAUCHS Gontran24BELUNTRUCCOOL23:07:1413:23 4.49133GOUTROUX
80.367RAUCHS Mathieu22BELUNTRUCCOOL23:07:1913:23 4.48134MONTIGNY-LE-TILLEUL
81.331HUBERT Tony27BELTEAMBUILDING3:12:2313:45 4.37137MEIXDEVANTVIRTON
DNF507PIRE Florentin26BEL
DNF506RENSON Romain26BEL
DNF449TEST Test33BEL
DNF: did not finish; DSQ: disqualified; Speed in km/h
Page: [1]